Weather in Pavlovo

Russia / Saint-Petersburg and Leningrad Oblast     59°48′29″N   30°53′06″E
temp.,
°C
wind,
m/s
gust,
m/s
humid.,
%
clouds,
%
prec.,
mm/h
press.,
hPa
HPBL,
m
19 april, mon
mon1900:00+6ene39815 0.0 1029264
03:00+4ne279452 0.0 1030159
06:00+3ne279299 0.0 1029173
09:00+8ene366113 0.0 1030511
12:00+11ene45415 0.0 10291277
15:00+13ene45320 0.0 10281598
18:00+11ne35393 0.0 10271148
21:00+5ne25675 0.0 102884
20 april, tue
tue2000:00+4e310683 0.0 1027220
03:00+2ese267436 0.0 1027112
06:00+1e2875100 0.0 1026174
09:00+6ese365853 0.0 1025479
12:00+9ese46365 0.0 10241662
15:00+11ese463180 0.0 10211916
18:00+10ese3641100 0.0 10191843
21:00+6ese3971100 0.0 1019559
21 april, wed
wed2100:00+5e2778100 0.0 1016343
03:00+4e2593100 0.1 1014498
06:00+4ne2596100 0.1 1011634
09:00+4ne2596100 0.3 1008643
12:00+2ne2598100 1.4 1005414
15:00+2nne1399100 5.6 1003133
18:00+2nw1299100 2.8 1002116
21:00+1wnw24100100 3.6 1002192
22 april, thu
thu2200:00+1wsw2598100 0.6 1002238
03:00+1sw2698100 0.8 1003383
06:000s249898 0.0 100495
09:00+5s368673 0.0 1005397
12:00+10ssw466945 0.0 10061071
15:00+12s466541 0.6 10061355
18:00+10s4877100 1.3 1005980
21:00+3s389699 3.9 1008295
23 april, fri
fri2300:00+3s3109492 0.0 1009307
03:00+2s389599 0.0 1009224
06:00+2sse2893100 0.0 1009219
09:00+5sse3779100 0.0 1008715
12:00+8s476999 0.8 10081280
15:00+8s466794 1.5 10071150
18:00+5ssw3893100 1.3 1008547
21:00+3s26955 1.5 1008143